[[{"header":{"parameterUnit":"m.s-1","parameterCategory":1,"la1":30.2991,"la2":30.254,"lo1":-89.0895,"lo2":-89.0444,"dy":0.0017,"dx":0.0017,"nx":28,"ny":28,"refTime":"2026-01-04T09:00:00:Z","depth":0,"parameterNumber":2,"parameterNumberName":"U-component_of_WINDS"},"data":[0,0,0,0,0,0,0,0,0,0,0,0,0,0,0,0,0,0,0,0,0,0,0,0,0,0,0,0,0,0,0,0,0,0,0,0,0,0,0,0,0,0,0,0,0,0,0,0,0,0,0,0,0,0,0,0,0,0,-0.809,-0.8091,0,-0.8152,-0.8153,-0.8153,-0.8142,-0.8141,-0.814,-0.8139,-0.8206,-0.8209,-0.8212,0,0,0,0,0,0,0,0,0,0,0,0,0,-0.7966,-0.7968,-0.809,-0.8091,-0.8092,-0.8152,-0.8153,-0.8154,-0.8143,-0.8141,-0.814,-0.8139,-0.8206,-0.8209,-0.8212,0,0,0,0,0,0,0,0,0,0,0,0,0,-0.8023,-0.7969,-0.809,-0.8093,-0.8094,-0.8152,-0.8153,-0.8154,-0.8143,-0.8141,-0.814,-0.8138,-0.8204,-0.8209,-0.8213,-0.8272,0,0,-0.8226,-0.8227,0,0,0,0,0,0,0,0,-0.802,-0.8028,-0.8092,-0.8093,-0.8094,-0.8138,-0.8134,-0.8194,-0.8143,-0.8125,-0.8139,-0.8137,-0.8185,-0.8191,-0.8206,-0.8275,-0.8278,-0.8226,-0.8229,-0.823,-0.8232,0,0,0,0,0,0,0,-0.8016,-0.8025,-0.8115,-0.8093,-0.8094,-0.8093,-0.8099,-0.8145,-0.8164,-0.8126,-0.8125,-0.8133,-0.8186,-0.8202,-0.8208,-0.8279,-0.8226,-0.823,-0.8232,-0.8234,-0.8401,-0.8402,0,0,0,0,0,0,-0.8011,-0.8022,-0.8113,-0.8116,-0.8052,-0.8097,-0.8104,-0.8125,-0.8163,-0.8167,-0.8134,-0.8132,-0.8196,-0.8203,-0.821,-0.8282,-0.823,-0.8234,-0.8237,-0.8399,-0.8401,-0.8403,0,0,0,0,0,0,-0.8008,-0.8019,-0.811,-0.8069,-0.8081,-0.81,-0.8125,-0.8128,-0.8144,-0.8169,-0.8173,-0.8147,-0.8195,-0.8204,-0.8257,-0.8284,-0.8236,-0.824,-0.8397,-0.8399,-0.8402,-0.8427,0,0,0,0,0,0,-0.8004,-0.8018,-0.804,-0.807,-0.8083,-0.8154,-0.8127,-0.813,-0.8151,-0.8149,-0.8182,-0.8186,-0.8194,-0.825,-0.8261,-0.8289,-0.8243,-0.8394,-0.8398,-0.8401,-0.8423,-0.843,-0.8436,0,0,0,0,0,-0.8,-0.8045,-0.8041,-0.8052,-0.811,-0.8156,-0.8164,-0.817,-0.8153,-0.8176,-0.8192,-0.8185,-0.828,-0.8256,-0.8267,-0.8298,-0.8392,-0.8397,-0.8401,-0.8421,-0.8429,-0.8435,0,0,0,0,0,0,-0.8019,-0.8049,-0.8045,-0.81,-0.8125,-0.8154,-0.8183,-0.8179,-0.821,-0.8207,-0.8216,-0.8223,-0.8277,-0.8293,-0.8265,-0.8358,-0.8334,-0.8341,-0.8345,-0.8353,-0.8359,-0.8354,-0.8247,0,0,0,0,0,-0.8029,-0.8062,-0.8087,-0.8134,-0.8147,-0.8163,-0.8183,-0.8186,-0.8213,-0.8224,-0.8244,-0.8272,-0.8308,-0.8331,-0.8366,-0.8426,-0.8434,-0.8453,-0.8459,-0.8464,-0.8469,-0.8503,-0.8512,-0.8417,-0.8417,-0.8417,0,0,-0.8051,-0.8072,-0.8092,-0.8138,-0.8158,-0.8194,-0.8172,-0.821,-0.8237,-0.823,-0.8281,-0.8296,-0.8328,-0.8385,-0.8411,-0.84,-0.8497,-0.8469,-0.8473,-0.8476,-0.8508,-0.8517,-0.8525,-0.842,-0.8419,-0.8419,0,0,-0.8109,-0.8128,-0.8169,-0.8189,-0.8219,-0.823,-0.824,-0.8269,-0.8279,-0.8329,-0.8325,-0.8358,-0.842,-0.8442,-0.8462,-0.853,-0.8525,-0.8541,-0.8573,-0.8605,-0.8613,-0.8619,-0.8644,-0.8653,-0.8547,-0.8547,-0.8547,0,-0.8133,-0.8185,-0.8191,-0.823,-0.825,-0.8245,-0.8287,-0.8307,-0.8348,-0.8363,-0.835,-0.8427,-0.8448,-0.851,-0.8526,-0.8543,-0.8555,-0.8537,-0.8611,-0.8618,-0.8624,-0.8648,-0.8657,-0.8549,-0.8548,-0.8548,-0.8548,0,-0.8213,-0.825,-0.8279,-0.8317,-0.8341,-0.8382,-0.8395,-0.8419,-0.842,-0.8433,-0.8485,-0.851,-0.8549,-0.8564,-0.8567,-0.8627,-0.862,-0.8609,-0.8585,-0.8635,-0.8657,-0.8666,-0.8551,-0.855,-0.855,-0.8549,0,0,-0.8284,-0.8325,-0.8335,-0.8353,-0.8386,-0.8415,-0.8456,-0.8493,-0.8514,-0.8543,-0.8578,-0.8631,-0.8621,-0.8643,-0.8648,-0.8677,-0.8729,-0.8663,-0.8664,-0.8674,-0.8799,-0.8806,-0.8816,-0.8727,-0.8729,-0.873,-0.8796,0,-0.8346,-0.8416,-0.8422,-0.8486,-0.852,-0.8516,-0.8552,-0.8577,-0.859,-0.8622,-0.8637,-0.8674,-0.8658,-0.8671,-0.87,-0.8717,-0.8755,-0.8712,-0.8761,-0.8762,-0.8752,-0.8828,-0.8836,-0.8897,-0.8805,-0.8806,-0.8807,0,-0.8426,-0.8456,-0.8522,-0.8551,-0.8566,-0.8597,-0.8633,-0.8663,-0.8692,-0.87,-0.8725,-0.8726,-0.877,-0.8745,-0.8806,-0.8777,-0.8797,-0.8809,-0.8812,-0.8816,-0.8787,-0.8835,-0.8917,-0.8926,-0.8821,-0.882,-0.8819,0,-0.8471,-0.8528,-0.8575,-0.859,-0.8625,-0.8647,-0.8663,-0.8691,-0.8713,-0.8744,-0.8759,-0.8796,-0.8816,-0.8845,-0.8857,-0.8838,-0.8918,-0.8893,-0.8926,-0.8926,-0.8943,-0.8941,-0.9029,-0.8956,-0.8956,-0.8956,-0.8956,0,-0.8539,-0.858,-0.8596,-0.8625,-0.8671,-0.8679,-0.8725,-0.874,-0.8765,-0.8798,-0.8797,-0.8829,-0.8842,-0.8876,-0.8886,-0.8935,-0.8945,-0.8953,-0.8955,-0.8953,-0.8952,-0.8966,-0.8962,-0.8958,-0.8958,-0.8957,-0.8957,0,-0.8596,-0.8609,-0.866,-0.8688,-0.8697,-0.873,-0.8755,-0.8784,-0.8796,-0.8838,-0.8849,-0.8869,-0.8909,-0.8924,-0.8973,-0.898,-0.9037,-0.9036,-0.9026,-0.9027,-0.9058,-0.9055,-0.9158,-0.9173,-0.909,-0.9091,-0.9092,0,-0.8638,-0.867,-0.8701,-0.8723,-0.8739,-0.8774,-0.8796,-0.8806,-0.883,-0.8865,-0.889,-0.893,-0.8962,-0.9026,-0.9047,-0.9085,-0.9084,-0.9118,-0.909,-0.9087,-0.9085,-0.9083,-0.9086,-0.9123,-0.9124,-0.9124,-0.9125,0,-0.8712,-0.8716,-0.8748,-0.8782,-0.8809,-0.8836,-0.8863,-0.8881,-0.8895,-0.8922,-0.8963,-0.8987,-0.9037,-0.9077,-0.9116,-0.9134,-0.9132,-0.9133,-0.9143,-0.9141,-0.9134,-0.9139,-0.904,-0.9131,-0.913,-0.913,-0.913,-0.9129,-0.8763,-0.8791,-0.8817,-0.8853,-0.8874,-0.8899,-0.8928,-0.8944,-0.8977,-0.9017,-0.9021,-0.9065,-0.9094,-0.9146,-0.9166,-0.9201,-0.9193,-0.9206,-0.921,-0.9213,-0.9215,-0.9129,-0.9209,-0.9209,-0.9208,-0.9208,-0.9208,0,-0.8836,-0.8853,-0.8886,-0.8923,-0.8951,-0.8946,-0.8976,-0.9,-0.9038,-0.9065,-0.9096,-0.9143,-0.9182,-0.9205,-0.9244,-0.9268,-0.9269,-0.9278,-0.9276,-0.9281,-0.9221,-0.9209,-0.9277,-0.9277,-0.9277,-0.9277,-0.9277,-0.9277,-0.8878,-0.8924,-0.8932,-0.899,-0.9007,-0.9048,-0.9066,-0.909,-0.9111,-0.9163,-0.9194,-0.9209,-0.9235,-0.9276,-0.9312,-0.9318,-0.9333,-0.9343,-0.9349,-0.9292,-0.9285,-0.9278,-0.9267,-0.9346,-0.9346,-0.9405,-0.9406,-0.9406]},{"header":{"parameterUnit":"m.s-1","parameterCategory":1,"la1":30.2991,"la2":30.254,"lo1":-89.0895,"lo2":-89.0444,"dy":0.0017,"dx":0.0017,"nx":28,"ny":28,"refTime":"2026-01-04T09:00:00:Z","depth":0,"parameterNumber":3,"parameterNumberName":"V-component_of_WINDS"},"data":[0,0,0,0,0,0,0,0,0,0,0,0,0,0,0,0,0,0,0,0,0,0,0,0,0,0,0,0,0,0,0,0,0,0,0,0,0,0,0,0,0,0,0,0,0,0,0,0,0,0,0,0,0,0,0,0,0,0,0.0786,0.0786,0,0.0747,0.0747,0.0746,0.0736,0.0736,0.0737,0.0737,0.0696,0.0695,0.0694,0,0,0,0,0,0,0,0,0,0,0,0,0,0.0853,0.0852,0.0786,0.0786,0.0785,0.0747,0.0747,0.0746,0.0736,0.0736,0.0737,0.0737,0.0697,0.0695,0.0694,0,0,0,0,0,0,0,0,0,0,0,0,0,0.082,0.0852,0.0787,0.0776,0.0775,0.0747,0.0747,0.0746,0.0736,0.0736,0.0737,0.0737,0.0697,0.0695,0.0693,0.0674,0,0,0.0687,0.0687,0,0,0,0,0,0,0,0,0.0822,0.0818,0.0778,0.0777,0.0775,0.0747,0.0755,0.0722,0.0736,0.0751,0.0737,0.0737,0.0713,0.071,0.0701,0.0672,0.067,0.0687,0.0686,0.0685,0.0685,0,0,0,0,0,0,0,0.0824,0.0819,0.0771,0.0777,0.0776,0.0773,0.0769,0.0749,0.073,0.0749,0.0749,0.0744,0.0712,0.0703,0.07,0.0669,0.0687,0.0686,0.0684,0.0684,0.0622,0.0622,0,0,0,0,0,0,0.0829,0.0821,0.0772,0.077,0.08,0.0772,0.0767,0.0756,0.073,0.0727,0.0744,0.0744,0.0706,0.0703,0.0699,0.0674,0.0685,0.0683,0.0682,0.0623,0.0622,0.0622,0,0,0,0,0,0,0.083,0.0824,0.0774,0.0795,0.0789,0.077,0.0758,0.0755,0.0746,0.0726,0.0723,0.0738,0.0707,0.0702,0.068,0.0672,0.0682,0.0681,0.0623,0.0623,0.0622,0.0624,0,0,0,0,0,0,0.0832,0.0825,0.0817,0.0795,0.0788,0.0755,0.0757,0.0754,0.0742,0.0742,0.072,0.0717,0.0707,0.0683,0.0678,0.067,0.0679,0.0624,0.0623,0.0622,0.0625,0.0624,0.0623,0,0,0,0,0,0.0834,0.0819,0.0817,0.0811,0.0777,0.0755,0.0751,0.0739,0.0742,0.0734,0.0721,0.0717,0.0675,0.0681,0.0675,0.0666,0.0624,0.0623,0.0622,0.0625,0.0624,0.0623,0,0,0,0,0,0,0.084,0.0816,0.0813,0.079,0.0775,0.0753,0.0743,0.0738,0.0722,0.0722,0.0709,0.0704,0.0683,0.0673,0.0681,0.0646,0.065,0.0647,0.0654,0.0652,0.0651,0.0654,0.0677,0,0,0,0,0,0.0838,0.0822,0.0802,0.0784,0.0776,0.0761,0.0751,0.0744,0.0727,0.0721,0.0707,0.0691,0.0674,0.0663,0.0646,0.0624,0.0619,0.0615,0.0614,0.0614,0.0611,0.0599,0.0597,0.0619,0.0619,0.0619,0,0,0.0835,0.082,0.081,0.0785,0.0772,0.0755,0.0755,0.0738,0.0726,0.0718,0.0696,0.0686,0.0668,0.0646,0.0636,0.0636,0.0605,0.0612,0.0612,0.061,0.0598,0.0596,0.0594,0.0618,0.0618,0.0618,0,0,0.082,0.0807,0.079,0.0778,0.0759,0.0749,0.0745,0.0725,0.0718,0.0696,0.069,0.0676,0.0647,0.0634,0.0624,0.0606,0.0602,0.0601,0.0596,0.0584,0.0582,0.0581,0.0574,0.0572,0.0599,0.0599,0.0599,0,0.0818,0.0793,0.0782,0.0765,0.0754,0.0747,0.073,0.0719,0.0695,0.0688,0.069,0.0654,0.0641,0.0616,0.0612,0.0604,0.0599,0.0603,0.0583,0.0582,0.058,0.0573,0.0571,0.0599,0.0599,0.0599,0.0599,0,0.0791,0.0774,0.0763,0.0741,0.0729,0.0712,0.0699,0.0688,0.0683,0.0673,0.0652,0.0636,0.0617,0.0611,0.0605,0.0585,0.0586,0.0586,0.0588,0.0578,0.0572,0.0569,0.0599,0.0599,0.0599,0.0599,0,0,0.0776,0.075,0.0746,0.0736,0.0715,0.0702,0.0685,0.0666,0.0657,0.0642,0.0627,0.0604,0.0604,0.0592,0.0585,0.0575,0.0562,0.0576,0.0575,0.0573,0.0539,0.0538,0.0535,0.0559,0.0559,0.0559,0.054,0,0.0758,0.0727,0.0718,0.0693,0.0677,0.0671,0.0657,0.0643,0.0634,0.0619,0.0609,0.0593,0.0594,0.0587,0.0577,0.0565,0.0554,0.0567,0.0545,0.0545,0.0549,0.0532,0.0531,0.0514,0.0537,0.0537,0.0537,0,0.0732,0.0716,0.0689,0.0672,0.0665,0.0652,0.0634,0.062,0.0605,0.0599,0.0587,0.0581,0.0564,0.0569,0.0545,0.0554,0.0545,0.0538,0.0537,0.0534,0.0539,0.0527,0.0508,0.0505,0.0533,0.0533,0.0533,0,0.0722,0.0695,0.0676,0.0668,0.0647,0.0638,0.0629,0.0613,0.0603,0.0588,0.0581,0.0564,0.0554,0.0542,0.0532,0.0537,0.0509,0.0513,0.0503,0.0503,0.0496,0.0496,0.0475,0.0492,0.0493,0.0493,0.0493,0,0.0702,0.0685,0.0671,0.0659,0.0641,0.0631,0.0613,0.0604,0.0591,0.0577,0.0572,0.0559,0.0547,0.0533,0.0525,0.0506,0.0503,0.0497,0.0495,0.0497,0.0497,0.0489,0.049,0.0492,0.0492,0.0492,0.0492,0,0.0688,0.0677,0.0656,0.0638,0.0634,0.0621,0.0606,0.0594,0.0586,0.0568,0.0563,0.055,0.0533,0.0522,0.0501,0.0496,0.0475,0.0474,0.048,0.0479,0.0469,0.047,0.044,0.0436,0.0458,0.0458,0.0458,0,0.0674,0.0661,0.0643,0.0634,0.0625,0.0609,0.0599,0.059,0.0579,0.0561,0.0552,0.0534,0.052,0.0493,0.0481,0.0465,0.0463,0.0454,0.046,0.0463,0.0462,0.0462,0.046,0.0452,0.0452,0.0452,0.0452,0,0.0652,0.0648,0.0633,0.0616,0.0604,0.0591,0.0578,0.057,0.0559,0.0548,0.053,0.0519,0.0498,0.0481,0.0464,0.0454,0.0451,0.045,0.0447,0.0448,0.0451,0.0448,0.0476,0.045,0.0451,0.0451,0.0451,0.0451,0.0636,0.0625,0.061,0.0594,0.0584,0.0572,0.056,0.0551,0.0536,0.0518,0.0514,0.0496,0.0482,0.0459,0.0449,0.0435,0.0436,0.0432,0.043,0.0429,0.0428,0.0455,0.0432,0.0432,0.0432,0.0432,0.0432,0,0.0612,0.0603,0.0589,0.0571,0.0558,0.0558,0.0543,0.0533,0.0517,0.0504,0.0491,0.0471,0.0455,0.0443,0.0427,0.0418,0.0416,0.0414,0.0413,0.0411,0.0428,0.0432,0.0416,0.0416,0.0416,0.0416,0.0416,0.0416,0.0598,0.0579,0.0574,0.0549,0.054,0.0523,0.0515,0.0504,0.0494,0.0472,0.0459,0.0452,0.0439,0.0422,0.0408,0.0405,0.0398,0.0396,0.0393,0.0408,0.041,0.0412,0.0415,0.0395,0.0395,0.0377,0.0376,0.0376]}]]